• Em Portugal
  • Lista de países
  • Para 7 dias
  • Temperatura da água
  • Mapas de satélite
  • Mapa do tempo
  • Widgets de tempo
  • user-avatar
    Iniciar Sessão

    Previsão horária em Ulan Bator

    Hoje, 11 Dezembro, Segunda-feira

    Tempo Temperatura Precipitação Vento Pressão Humidade
    00:00 -19°C° 0 mm 2 m/s 653 mmHg 91%
    01:00 -18°C° 0 mm 1 m/s 653 mmHg 90%
    02:00 -18°C° 0 mm 1 m/s 653 mmHg 87%
    03:00 -18°C° 0 mm 1 m/s 653 mmHg 85%
    04:00 -18°C° 0 mm 1 m/s 653 mmHg 83%
    05:00 -18°C° 0 mm 1 m/s 653 mmHg 80%
    06:00 -18°C° 0 mm 1 m/s 653 mmHg 78%
    07:00 -18°C° 0 mm 1 m/s 652 mmHg 76%
    08:00 -17°C° 0 mm 1 m/s 653 mmHg 73%
    09:00 -16°C° 0 mm 1 m/s 653 mmHg 71%
    10:00 -16°C° 0 mm 1 m/s 653 mmHg 69%
    11:00 -15°C° 0 mm 1 m/s 652 mmHg 67%
    12:00 -14°C° 0 mm 1 m/s 652 mmHg 66%
    13:00 -13°C° 0 mm 1 m/s 652 mmHg 65%
    14:00 -14°C° 0 mm 1 m/s 652 mmHg 66%
    15:00 -15°C° 0 mm 1 m/s 651 mmHg 67%
    16:00 -15°C° 0 mm 1 m/s 651 mmHg 69%
    17:00 -15°C° 0 mm 1 m/s 651 mmHg 70%
    18:00 -16°C° 0 mm 1 m/s 651 mmHg 72%
    19:00 -16°C° 0 mm 1 m/s 651 mmHg 73%
    20:00 -16°C° 0 mm 1 m/s 651 mmHg 75%
    21:00 -16°C° 0 mm 1 m/s 651 mmHg 76%
    22:00 -16°C° 0 mm 1 m/s 651 mmHg 78%
    23:00 -16°C° 0 mm 1 m/s 651 mmHg 79%

    Amanhã, 12 Dezembro, Terça-feira

    Tempo Temperatura Precipitação Vento Pressão Humidade
    00:00 -16°C° 0 mm 1 m/s 651 mmHg 80%
    01:00 -16°C° 0 mm 1 m/s 652 mmHg 82%
    02:00 -16°C° 0 mm 1 m/s 651 mmHg 82%
    03:00 -16°C° 0 mm 1 m/s 651 mmHg 83%
    04:00 -16°C° 0 mm 1 m/s 651 mmHg 84%
    05:00 -16°C° 0 mm 1 m/s 651 mmHg 85%
    06:00 -16°C° 0 mm 1 m/s 651 mmHg 85%
    07:00 -17°C° 0 mm 1 m/s 651 mmHg 85%
    08:00 -16°C° 0 mm 1 m/s 652 mmHg 84%
    09:00 -15°C° 0 mm 1 m/s 652 mmHg 84%
    10:00 -15°C° 0 mm 1 m/s 652 mmHg 83%
    11:00 -14°C° 0 mm 1 m/s 652 mmHg 82%
    12:00 -14°C° 0 mm 1 m/s 652 mmHg 81%
    13:00 -13°C° 0 mm 1 m/s 651 mmHg 80%
    14:00 -14°C° 0 mm 1 m/s 651 mmHg 81%
    15:00 -15°C° 0 mm 1 m/s 651 mmHg 82%
    16:00 -15°C° 0 mm 1 m/s 651 mmHg 83%
    17:00 -15°C° 0 mm 1 m/s 651 mmHg 83%
    18:00 -18°C° 0 mm 2 m/s 651 mmHg 83%
    19:00 -18°C° 0 mm 2 m/s 651 mmHg 83%
    20:00 -18°C° 0 mm 2 m/s 651 mmHg 82%
    21:00 -18°C° 0 mm 2 m/s 651 mmHg 82%
    22:00 -18°C° 0 mm 2 m/s 651 mmHg 82%
    23:00 -18°C° 0 mm 2 m/s 651 mmHg 81%

    Depois de amanhã, 13 Dezembro, Quarta-feira

    Tempo Temperatura Precipitação Vento Pressão Humidade
    00:00 -18°C° 0 mm 2 m/s 651 mmHg 81%
    01:00 -18°C° 0 mm 2 m/s 651 mmHg 80%
    02:00 -18°C° 0 mm 2 m/s 651 mmHg 80%
    03:00 -18°C° 0 mm 2 m/s 651 mmHg 79%
    04:00 -18°C° 0 mm 2 m/s 651 mmHg 79%
    05:00 -18°C° 0 mm 2 m/s 651 mmHg 79%
    06:00 -18°C° 0 mm 2 m/s 651 mmHg 78%
    07:00 -18°C° 0 mm 2 m/s 651 mmHg 78%
    08:00 -18°C° 0 mm 2 m/s 651 mmHg 77%
    09:00 -17°C° 0 mm 2 m/s 652 mmHg 76%
    10:00 -17°C° 0 mm 2 m/s 652 mmHg 75%
    11:00 -14°C° 0 mm 1 m/s 652 mmHg 74%
    12:00 -14°C° 0 mm 1 m/s 652 mmHg 74%
    13:00 -13°C° 0 mm 1 m/s 651 mmHg 73%
    14:00 -14°C° 0 mm 1 m/s 651 mmHg 74%
    15:00 -15°C° 0 mm 0 m/s 651 mmHg 75%
    16:00 -15°C° 0 mm 0 m/s 651 mmHg 76%
    17:00 -16°C° 0 mm 1 m/s 652 mmHg 77%
    18:00 -16°C° 0 mm 1 m/s 652 mmHg 78%
    19:00 -16°C° 0 mm 1 m/s 652 mmHg 80%
    20:00 -16°C° 0 mm 1 m/s 653 mmHg 82%
    21:00 -18°C° 0 mm 2 m/s 653 mmHg 84%
    22:00 -19°C° 0 mm 2 m/s 653 mmHg 86%
    23:00 -19°C° 0 mm 2 m/s 653 mmHg 88%

    14 Dezembro, Quinta-feira

    Tempo Temperatura Precipitação Vento Pressão Humidade
    00:00 -19°C° 0 mm 2 m/s 653 mmHg 89%
    01:00 -19°C° 0 mm 2 m/s 653 mmHg 91%
    02:00 -20°C° 0 mm 2 m/s 653 mmHg 92%
    03:00 -20°C° 0 mm 2 m/s 654 mmHg 92%
    04:00 -20°C° 0 mm 2 m/s 654 mmHg 93%
    05:00 -20°C° 0 mm 2 m/s 654 mmHg 93%
    06:00 -20°C° 0 mm 2 m/s 654 mmHg 92%
    07:00 -20°C° 0 mm 2 m/s 654 mmHg 92%
    08:00 -18°C° 0 mm 1 m/s 654 mmHg 91%
    09:00 -17°C° 0 mm 1 m/s 655 mmHg 89%
    10:00 -17°C° 0 mm 1 m/s 655 mmHg 87%
    11:00 -16°C° 0 mm 1 m/s 655 mmHg 86%
    12:00 -16°C° 0 mm 1 m/s 655 mmHg 84%
    13:00 -15°C° 0 mm 1 m/s 654 mmHg 83%
    14:00 -16°C° 0 mm 1 m/s 654 mmHg 85%
    15:00 -17°C° 0 mm 1 m/s 654 mmHg 87%
    16:00 -17°C° 0 mm 1 m/s 654 mmHg 90%
    17:00 -18°C° 0 mm 1 m/s 654 mmHg 90%
    18:00 -18°C° 0 mm 1 m/s 654 mmHg 91%
    19:00 -18°C° 0 mm 1 m/s 654 mmHg 92%
    20:00 -18°C° 0 mm 1 m/s 654 mmHg 93%
    21:00 -18°C° 0 mm 1 m/s 654 mmHg 94%
    22:00 -18°C° 0 mm 1 m/s 654 mmHg 96%
    23:00 -18°C° 0 mm 1 m/s 654 mmHg 96%

    15 Dezembro, Sexta-feira

    Tempo Temperatura Precipitação Vento Pressão Humidade
    00:00 -18°C° 0 mm 1 m/s 654 mmHg 96%
    01:00 -18°C° 0 mm 1 m/s 654 mmHg 96%
    02:00 -18°C° 0 mm 1 m/s 654 mmHg 96%
    03:00 -18°C° 0 mm 1 m/s 654 mmHg 96%
    04:00 -19°C° 0 mm 1 m/s 654 mmHg 96%
    05:00 -19°C° 0 mm 1 m/s 655 mmHg 95%
    06:00 -19°C° 0 mm 1 m/s 655 mmHg 95%
    07:00 -21°C° 0 mm 2 m/s 655 mmHg 95%
    08:00 -21°C° 0 mm 2 m/s 655 mmHg 94%
    09:00 -21°C° 0 mm 2 m/s 656 mmHg 93%
    10:00 -20°C° 0 mm 2 m/s 656 mmHg 92%
    11:00 -20°C° 0 mm 2 m/s 656 mmHg 90%
    12:00 -21°C° 0 mm 3 m/s 656 mmHg 88%
    13:00 -22°C° 0 mm 4 m/s 656 mmHg 87%
    14:00 -22°C° 0 mm 4 m/s 656 mmHg 88%
    15:00 -23°C° 0 mm 4 m/s 656 mmHg 89%
    16:00 -23°C° 0 mm 4 m/s 656 mmHg 90%
    17:00 -24°C° 0 mm 4 m/s 656 mmHg 89%
    18:00 -24°C° 0 mm 4 m/s 657 mmHg 88%
    19:00 -23°C° 0 mm 3 m/s 657 mmHg 86%
    20:00 -23°C° 0 mm 3 m/s 657 mmHg 86%
    21:00 -23°C° 0 mm 3 m/s 657 mmHg 86%
    22:00 -23°C° 0 mm 3 m/s 657 mmHg 86%
    23:00 -23°C° 0 mm 3 m/s 657 mmHg 86%

    16 Dezembro, Sábado

    Tempo Temperatura Precipitação Vento Pressão Humidade
    00:00 -23°C° 0 mm 3 m/s 657 mmHg 86%
    01:00 -23°C° 0 mm 3 m/s 657 mmHg 86%
    02:00 -23°C° 0 mm 3 m/s 657 mmHg 86%
    03:00 -21°C° 0 mm 2 m/s 657 mmHg 86%
    04:00 -21°C° 0 mm 2 m/s 657 mmHg 86%
    05:00 -21°C° 0 mm 2 m/s 657 mmHg 86%
    06:00 -21°C° 0 mm 2 m/s 657 mmHg 86%
    07:00 -21°C° 0 mm 2 m/s 657 mmHg 86%
    08:00 -20°C° 0 mm 2 m/s 657 mmHg 85%
    09:00 -20°C° 0 mm 2 m/s 657 mmHg 83%
    10:00 -19°C° 0 mm 2 m/s 657 mmHg 82%
    11:00 -18°C° 0 mm 2 m/s 657 mmHg 81%
    12:00 -17°C° 0 mm 2 m/s 656 mmHg 80%
    13:00 -17°C° 0 mm 2 m/s 656 mmHg 78%
    14:00 -17°C° 0 mm 2 m/s 655 mmHg 79%
    15:00 -18°C° 0 mm 2 m/s 655 mmHg 81%
    16:00 -18°C° 0 mm 2 m/s 655 mmHg 82%
    17:00 -18°C° 0 mm 2 m/s 654 mmHg 81%
    18:00 -18°C° 0 mm 2 m/s 654 mmHg 81%
    19:00 -16°C° 0 mm 1 m/s 654 mmHg 80%
    20:00 -16°C° 0 mm 1 m/s 654 mmHg 80%
    21:00 -16°C° 0 mm 1 m/s 654 mmHg 81%
    22:00 -16°C° 0 mm 1 m/s 653 mmHg 81%
    23:00 -16°C° 0 mm 1 m/s 653 mmHg 82%
    Mostrar mais